Location: Bartshausen
(51.8454°N, 9.8167°E)
Time: 10:10:54
(UTC+00:00)

ARIANE 5 R/B - Pass Details

Date: 08 November 2025
Orbit: 747 x 792 km, 98.8° (Epoch: 11 December)

Event Time Altitude Azimuth Distance (km) Brightness Sun altitude
Rises 05:42:21 0° 18° (NNE) 3,219 5.7 -7.4°
Reaches altitude 10° 05:44:41 10° 23° (NNE) 2,294 5.0 -7.0°
Maximum altitude 05:49:39 56° 102° (ESE) 902 3.4 -6.3°
Drops below altitude 10° 05:54:39 10° 180° (S) 2,304 5.3 -5.6°
Sets 05:57:00 0° 185° (S) 3,234 6.0 -5.2°
